K5NCO Weather Reports


Display with metric or nautical units.
time (UTC)temp
F
wind
direction
speed
MPH
gust
MPH
rain 1hr
in
rain 24hr
in
rain mn
in
humidity
%
barometer
mb
20260503201328 77 161 7.0 9.0 0.00 0.00 0.00 36 1021.6
20260503200826 78 136 7.0 10.0 0.00 0.00 0.00 38 1021.5
20260503200321 79 136 11.0 14.0 0.00 0.00 0.00 34 1021.5
20260503195819 77 77 4.0 10.0 0.00 0.00 0.00 39 1021.7
20260503195315 77 234 8.0 9.0 0.00 0.00 0.00 39 1021.9
20260503194813 77 201 7.0 9.0 0.00 0.00 0.00 38 1021.9
20260503194309 77 79 6.0 7.0 0.00 0.00 0.00 36 1021.9
20260503193805 77 164 9.0 11.0 0.00 0.00 0.00 37 1022.2
20260503193301 76 131 12.0 14.0 0.00 0.00 0.00 37 1022.2
20260503192757 77 163 3.0 4.0 0.00 0.00 0.00 38 1022.1
20260503192252 77 134 8.0 10.0 0.00 0.00 0.00 38 1022.0
20260503191749 77 166 4.0 4.0 0.00 0.00 0.00 40 1022.1
20260503191246 76 201 4.0 4.0 0.00 0.00 0.00 40 1022.4
20260503190743 76 218 3.0 4.0 0.00 0.00 0.00 41 1022.3
20260503190240 76 153 6.0 9.0 0.00 0.00 0.00 39 1022.4
20260503185737 76 145 1.0 3.0 0.00 0.00 0.00 42 1022.4
20260503185232 77 183 8.0 11.0 0.00 0.00 0.00 40 1022.8
20260503184727 76 159 9.0 10.0 0.00 0.00 0.00 38 1022.6
20260503184224 76 156 11.0 13.0 0.00 0.00 0.00 37 1022.8
20260503183720 75 106 6.0 9.0 0.00 0.00 0.00 38 1022.9
20260503183218 76 238 3.0 6.0 0.00 0.00 0.00 39 1023.0
20260503182716 76 128 3.0 3.0 0.00 0.00 0.00 38 1023.1
20260503182214 76 136 8.0 9.0 0.00 0.00 0.00 36 1023.3
20260503181710 77 146 10.0 14.0 0.00 0.00 0.00 37 1023.4
20260503181208 76 97 2.0 3.0 0.00 0.00 0.00 41 1023.2
20260503180704 75 170 6.0 8.0 0.00 0.00 0.00 39 1023.2
20260503180203 75 211 6.0 8.0 0.00 0.00 0.00 41 1023.7
20260503175659 75 127 7.0 8.0 0.00 0.00 0.00 41 1023.7
20260503175156 76 158 9.0 10.0 0.00 0.00 0.00 38 1023.9
20260503174652 75 85 2.0 3.0 0.00 0.00 0.00 44 1023.8
20260503174150 75 179 11.0 11.0 0.00 0.00 0.00 42 1023.8
20260503173645 75 195 4.0 6.0 0.00 0.00 0.00 41 1024.0
20260503173142 75 166 8.0 9.0 0.00 0.00 0.00 40 1023.8
20260503172638 75 90 4.0 6.0 0.00 0.00 0.00 40 1023.8
20260503172136 76 112 4.0 6.0 0.00 0.00 0.00 45 1024.1
20260503171632 75 191 8.0 10.0 0.00 0.00 0.00 40 1024.0
20260503171130 75 94 4.0 6.0 0.00 0.00 0.00 43 1024.1
20260503170626 75 173 3.0 4.0 0.00 0.00 0.00 43 1024.2
20260503170123 75 194 6.0 7.0 0.00 0.00 0.00 41 1024.5
20260503150515 70 199 5.0 7.0 0.00 0.00 0.00 56 1024.6
20260503131408 59 221 5.0 6.0 0.00 0.00 0.00 77 1024.2
20260503130905 59 217 3.0 4.0 0.00 0.00 0.00 78 1024.2
20260503130402 59 213 3.0 3.0 0.00 0.00 0.00 78 1024.4
20260503110806 53 247 0.0 1.0 0.00 0.00 0.00 89 1023.4
20260503110303 53 247 0.0 0.0 0.00 0.00 0.00 89 1023.1
20260503100229 54 233 1.0 2.0 0.00 0.00 0.00 89 1022.8
20260503090154 55 249 0.0 0.0 0.00 0.00 0.00 89 1022.9
20260503081624 55 253 0.0 0.0 0.00 0.00 0.00 89 1022.8
20260503081121 55 253 0.0 0.0 0.00 0.00 0.00 90 1022.6
20260503080617 55 233 0.0 0.0 0.00 0.00 0.00 89 1023.0
20260503080114 55 232 0.0 0.0 0.00 0.00 0.00 89 1023.1
20260503072551 56 248 0.0 0.0 0.00 0.00 0.00 87 1023.1
20260503072048 56 248 0.0 0.0 0.00 0.00 0.00 88 1023.1
20260503071545 56 249 0.0 0.0 0.00 0.00 0.00 87 1023.2
20260503071042 56 248 0.0 0.0 0.00 0.00 0.00 87 1023.2
20260503070538 57 248 0.0 0.0 0.00 0.00 0.00 86 1023.4
20260503054957 58 256 0.0 0.0 0.00 0.00 0.00 83 1023.3
20260503054453 58 256 0.0 0.0 0.00 0.00 0.00 83 1023.3
20260503053951 59 256 0.0 0.0 0.00 0.00 0.00 81 1023.5
20260503053448 59 256 0.0 0.0 0.00 0.00 0.00 79 1023.5
20260503052945 59 256 0.0 0.0 0.00 0.00 0.00 79 1023.6
20260503052443 59 249 0.0 0.0 0.00 0.00 0.00 78 1023.7
20260503051938 59 249 0.0 0.0 0.00 0.00 0.00 79 1023.4
20260503051434 59 239 0.0 0.0 0.00 0.00 0.00 79 1023.5
20260503050932 59 237 0.0 0.0 0.00 0.00 0.00 80 1023.5
20260503050427 59 225 0.0 0.0 0.00 0.00 0.00 79 1023.4
20260503045926 60 225 0.0 0.0 0.00 0.00 0.00 77 1023.3
20260503045423 60 225 0.0 0.0 0.00 0.00 0.00 76 1023.2
20260503044919 60 233 0.0 0.0 0.00 0.00 0.00 77 1023.3
20260503044416 60 233 0.0 0.0 0.00 0.00 0.00 77 1023.4
20260503043914 60 233 0.0 0.0 0.00 0.00 0.00 76 1023.4
20260503043411 61 208 0.0 0.0 0.00 0.00 0.00 76 1023.2
20260503042907 61 120 0.0 0.0 0.00 0.00 0.00 75 1023.3
20260503042403 61 120 0.0 0.0 0.00 0.00 0.00 74 1023.4
20260503041859 60 120 0.0 0.0 0.00 0.00 0.00 74 1023.1
20260503041357 60 119 0.0 0.0 0.00 0.00 0.00 75 1023.2
20260503040854 61 119 0.0 0.0 0.00 0.00 0.00 73 1023.2
20260503040352 62 119 0.0 0.0 0.00 0.00 0.00 72 1023.2
20260503035848 62 119 0.0 0.0 0.00 0.00 0.00 70 1023.2
20260503035346 62 120 0.0 0.0 0.00 0.00 0.00 70 1023.3
20260503034843 60 119 0.0 0.0 0.00 0.00 0.00 74 1023.1
20260503034340 60 119 0.0 0.0 0.00 0.00 0.00 73 1023.3
20260503033837 61 119 0.0 0.0 0.00 0.00 0.00 73 1023.2
20260503033335 61 119 0.0 0.0 0.00 0.00 0.00 72 1023.0
20260503032833 61 119 0.0 0.0 0.00 0.00 0.00 71 1023.0
20260503032331 62 119 0.0 0.0 0.00 0.00 0.00 69 1022.8
20260503031828 63 119 0.0 0.0 0.00 0.00 0.00 68 1023.0
20260503031326 63 119 0.0 0.0 0.00 0.00 0.00 67 1023.1
20260503030822 64 119 0.0 0.0 0.00 0.00 0.00 64 1022.8
20260503030319 64 119 0.0 0.0 0.00 0.00 0.00 63 1022.9
20260503025815 64 119 0.0 0.0 0.00 0.00 0.00 65 1022.9
20260503025313 64 119 0.0 0.0 0.00 0.00 0.00 65 1022.8
20260503024809 64 111 0.0 0.0 0.00 0.00 0.00 65 1022.8
20260503024306 64 91 0.0 0.0 0.00 0.00 0.00 64 1022.5
20260503023804 65 91 0.0 0.0 0.00 0.00 0.00 62 1022.3
20260503023301 65 91 0.0 0.0 0.00 0.00 0.00 62 1022.1
20260503022757 65 91 0.0 0.0 0.00 0.00 0.00 61 1022.2
20260503022257 66 91 0.0 0.0 0.00 0.00 0.00 59 1022.1
20260503021754 67 91 0.0 0.0 0.00 0.00 0.00 58 1022.0
20260503021249 67 90 0.0 0.0 0.00 0.00 0.00 57 1022.1
20260503020748 67 90 0.0 0.0 0.00 0.00 0.00 57 1022.0
20260503020245 67 91 0.0 0.0 0.00 0.00 0.00 56 1022.1
20260503015741 68 91 0.0 0.0 0.00 0.00 0.00 55 1022.1
20260503015238 68 91 0.0 1.0 0.00 0.00 0.00 55 1022.0
20260503014734 68 91 1.0 1.0 0.00 0.00 0.00 54 1021.9
20260503014232 68 91 1.0 1.0 0.00 0.00 0.00 53 1021.9
20260503013729 68 80 0.0 0.0 0.00 0.00 0.00 53 1022.0
20260503013227 68 77 0.0 0.0 0.00 0.00 0.00 52 1021.9
20260503012724 68 84 2.0 2.0 0.00 0.00 0.00 52 1021.9
20260503012221 69 74 1.0 1.0 0.00 0.00 0.00 52 1021.9
20260503011718 69 74 1.0 2.0 0.00 0.00 0.00 52 1021.6
20260503011215 69 73 2.0 2.0 0.00 0.00 0.00 51 1021.7
20260503010711 69 64 2.0 2.0 0.00 0.00 0.00 51 1021.8
20260503010208 70 70 1.0 2.0 0.00 0.00 0.00 50 1021.6
20260503005706 70 69 1.0 1.0 0.00 0.00 0.00 49 1021.6
20260503005203 70 78 1.0 2.0 0.00 0.00 0.00 47 1021.8
20260503004658 71 51 2.0 3.0 0.00 0.00 0.00 48 1021.6
20260503004157 71 80 3.0 4.0 0.00 0.00 0.00 46 1021.6
20260503003654 71 72 2.0 3.0 0.00 0.00 0.00 46 1021.6
20260503003151 71 29 3.0 3.0 0.00 0.00 0.00 45 1021.5
20260503002647 72 52 1.0 1.0 0.00 0.00 0.00 47 1021.4
20260503002144 72 45 2.0 2.0 0.00 0.00 0.00 45 1021.6
20260503001640 72 103 2.0 2.0 0.00 0.00 0.00 44 1021.6
20260503001137 72 42 3.0 4.0 0.00 0.00 0.00 44 1021.5
20260503000635 72 70 3.0 4.0 0.00 0.00 0.00 44 1021.3
20260503000132 72 52 4.0 6.0 0.00 0.00 0.00 43 1021.4
20260502235628 73 341 3.0 4.0 0.00 0.00 0.00 43 1021.4
20260502235126 73 79 1.0 1.0 0.00 0.00 0.00 42 1021.5
20260502234622 73 99 4.0 4.0 0.00 0.00 0.00 41 1021.4
20260502234120 73 24 0.0 2.0 0.00 0.00 0.00 42 1021.4
20260502233615 73 359 4.0 6.0 0.00 0.00 0.00 41 1021.5
20260502233112 74 358 4.0 6.0 0.00 0.00 0.00 41 1021.5
20260502232609 73 312 2.0 3.0 0.00 0.00 0.00 41 1021.4
20260502232106 73 28 4.0 6.0 0.00 0.00 0.00 40 1021.3
20260502231602 73 58 1.0 1.0 0.00 0.00 0.00 41 1021.1
20260502231101 73 39 4.0 4.0 0.00 0.00 0.00 40 1021.3
20260502230558 74 320 1.0 1.0 0.00 0.00 0.00 39 1021.3
20260502230056 73 343 3.0 3.0 0.00 0.00 0.00 41 1021.3
20260502225552 74 351 2.0 3.0 0.00 0.00 0.00 40 1021.3
20260502225050 74 332 4.0 4.0 0.00 0.00 0.00 41 1021.2
20260502224545 74 6 6.0 8.0 0.00 0.00 0.00 41 1021.2
20260502224042 73 12 2.0 3.0 0.00 0.00 0.00 40 1021.4
20260502223540 73 335 3.0 4.0 0.00 0.00 0.00 39 1021.3
20260502223038 73 69 2.0 3.0 0.00 0.00 0.00 42 1021.2
20260502222535 74 64 2.0 2.0 0.00 0.00 0.00 42 1021.4
20260502222032 74 348 7.0 10.0 0.00 0.00 0.00 43 1021.2
20260502221527 73 39 3.0 6.0 0.00 0.00 0.00 44 1021.4
20260502221025 73 24 7.0 9.0 0.00 0.00 0.00 43 1021.3
20260502220520 73 63 1.0 1.0 0.00 0.00 0.00 44 1021.5
20260502220017 74 349 4.0 4.0 0.00 0.00 0.00 42 1021.3
20260502215515 73 49 3.0 4.0 0.00 0.00 0.00 43 1021.5
20260502215011 74 337 2.0 3.0 0.00 0.00 0.00 44 1021.7
20260502214508 73 343 5.0 6.0 0.00 0.00 0.00 43 1021.6
20260502214006 73 0 3.0 4.0 0.00 0.00 0.00 43 1021.6
20260502213502 73 341 5.0 7.0 0.00 0.00 0.00 43 1021.7
20260502213000 73 14 5.0 9.0 0.00 0.00 0.00 42 1021.9
20260502212459 73 359 6.0 8.0 0.00 0.00 0.00 42 1021.8
20260502211955 73 4 7.0 9.0 0.00 0.00 0.00 43 1021.9
20260502211451 73 41 4.0 7.0 0.00 0.00 0.00 41 1021.8
20260502210949 73 24 3.0 4.0 0.00 0.00 0.00 42 1022.0
20260502210445 73 335 7.0 9.0 0.00 0.00 0.00 42 1022.2
20260502205943 73 340 7.0 8.0 0.00 0.00 0.00 42 1022.1
20260502205439 73 6 9.0 10.0 0.00 0.00 0.00 41 1022.4
20260502204936 72 357 4.0 7.0 0.00 0.00 0.00 42 1022.5
20260502204433 73 11 6.0 9.0 0.00 0.00 0.00 42 1022.5
20260502203931 73 1 5.0 7.0 0.00 0.00 0.00 43 1022.4
20260502203428 73 24 2.0 4.0 0.00 0.00 0.00 46 1022.5
20260502202924 72 10 4.0 6.0 0.00 0.00 0.00 43 1022.6
20260502202421 73 359 2.0 3.0 0.00 0.00 0.00 45 1022.6
20260502201919 73 65 5.0 7.0 0.00 0.00 0.00 43 1022.8
20260502201415 72 22 4.0 4.0 0.00 0.00 0.00 42 1022.8